Weather History for New River MCAS, NC

Change the Weather History Date:

Wednesday, March 23, 2011

  Actual Average Record
Temperature  
Mean Temperature 70 °F -  
Max Temperature 87 °F 65 °F 87 °F (2011)
Min Temperature 53 °F 43 °F 26 °F (2002)
Cooling Degree Days 4    
Growing Degree Days 20 (Base 50)    
Moisture  
Dew Point 51 °F    
Average Humidity 59    
Maximum Humidity 100    
Minimum Humidity 15    
Precipitation  
Precipitation 0.00 in - - ()
Sea Level Pressure  
Sea Level Pressure 29.66 in    
Wind  
Wind Speed 8 mph (SW)    
Max Wind Speed 21 mph    
Max Gust Speed 30 mph    
Visibility 6 miles    
Events      
Averages and records for this station are not official NWS values.
T = Trace of Precipitation, MM = Missing Value Source: NWS Daily Summary

Daily Weather History Graph

Daily Weather History Graph

Search for Another Location

Airport:

Trip Planner

Search our weather history database for the weather conditions in past years. The results will help you decide how hot, cold, wet, or windy it might be!

Date:

Astronomy

Mar. 23, 2011 Rise Set
Actual Time 7:09 AM EDT 7:23 PM EDT
Civil Twilight 6:44 AM EDT 7:48 PM EDT
Nautical Twilight 6:15 AM EDT 8:18 PM EDT
Astronomical Twilight 5:45 AM EDT 8:48 PM EDT
Moon No Moon Rise 9:31 AM EDT (3/23)
Length of Visible Light 13h 04m
Length of Day
12h 13m
Waning Gibbous, 79% of the Moon is Illuminated
Mar 23
Waning Gibbous
Mar 26
Last Quarter
Apr 3
New
Apr 11
First Quarter
Apr 17
Full

Hourly Weather History & Observations

Time (EDT) Temp. Heat Index Dew Point Humidity Pressure Visibility Wind Dir Wind Speed Gust Speed Precip Events Conditions
12:56 AM 55.9 °F - 54.0 °F 93% 29.87 in 10.0 mi NE 3.5 mph - N/A   Clear
1:56 AM 55.9 °F - 54.0 °F 93% 29.87 in 10.0 mi East 4.6 mph - N/A   Clear
2:56 AM 55.0 °F - 53.1 °F 93% 29.85 in 9.0 mi Calm Calm - N/A   Clear
3:56 AM 53.1 °F - 53.1 °F 100% 29.82 in 7.0 mi SSW 3.5 mph - N/A   Clear
4:30 AM 53.6 °F - 53.6 °F 100% 29.79 in 2.5 mi South 3.5 mph - N/A   Partly Cloudy
4:40 AM 53.6 °F - 53.6 °F 100% 29.79 in 1.2 mi SSW 3.5 mph - N/A   Scattered Clouds
4:54 AM 55.4 °F - 53.6 °F 94% 29.78 in 3.0 mi SSW 4.6 mph - N/A   Partly Cloudy
4:56 AM 55.9 °F - 54.0 °F 93% 29.79 in 4.0 mi SW 3.5 mph - N/A   Partly Cloudy
5:56 AM 60.1 °F - 53.1 °F 78% 29.79 in 10.0 mi WSW 8.1 mph - N/A   Clear
6:56 AM 62.1 °F - 51.1 °F 67% 29.80 in 10.0 mi WSW 12.7 mph 18.4 mph N/A   Mostly Cloudy
7:56 AM 63.0 °F - 50.0 °F 63% 29.81 in 10.0 mi WSW 9.2 mph - N/A   Clear
8:56 AM 64.9 °F - 50.0 °F 58% 29.81 in 10.0 mi WSW 9.2 mph - N/A   Scattered Clouds
9:56 AM 71.1 °F - 51.1 °F 49% 29.79 in 10.0 mi West 13.8 mph 20.7 mph N/A   Scattered Clouds
10:56 AM 75.9 °F - 52.0 °F 43% 29.78 in 10.0 mi West 15.0 mph 23.0 mph N/A   Scattered Clouds
11:09 AM 78.8 °F - 51.8 °F 39% 29.76 in 10.0 mi West 16.1 mph - N/A   Mostly Cloudy
11:54 AM 80.6 °F - 51.8 °F 37% 29.73 in 10.0 mi West 12.7 mph 25.3 mph N/A   Mostly Cloudy
11:56 AM 81.0 °F 80.4 °F 53.1 °F 38% 29.74 in 10.0 mi West 17.3 mph 25.3 mph N/A   Mostly Cloudy
12:56 PM 81.0 °F - 45.0 °F 28% 29.71 in 10.0 mi West 13.8 mph 26.5 mph N/A   Overcast
1:56 PM 82.9 °F - 37.9 °F 20% 29.67 in 10.0 mi WSW 11.5 mph 25.3 mph N/A   Clear
2:56 PM 86.0 °F - 33.1 °F 15% 29.63 in 10.0 mi WSW 20.7 mph 29.9 mph N/A   Clear
3:56 PM 86.0 °F - 36.0 °F 17% 29.60 in 10.0 mi WSW 18.4 mph 29.9 mph N/A   Clear
4:56 PM 82.0 °F - 39.9 °F 22% 29.58 in 10.0 mi WSW 15.0 mph 20.7 mph N/A   Clear
5:56 PM 80.1 °F - 43.0 °F 27% 29.56 in 10.0 mi SW 9.2 mph - N/A   Clear
6:26 PM 73.4 °F - 53.6 °F 50% 29.55 in 5.0 mi South 11.5 mph 17.3 mph N/A   Haze
6:45 PM 71.6 °F - 53.6 °F 53% 29.54 in 2.0 mi South 10.4 mph - N/A   Haze
6:52 PM 71.6 °F - 53.6 °F 53% 29.54 in 1.8 mi South 11.5 mph - N/A   Haze
6:53 PM 71.6 °F - 53.6 °F 53% 29.54 in 1.8 mi South 11.5 mph - N/A   Haze
6:54 PM 71.6 °F - 53.6 °F 53% 29.54 in 1.8 mi South 11.5 mph - N/A   Haze
6:56 PM 72.0 °F - 54.0 °F 53% 29.55 in 1.8 mi South 9.2 mph - N/A   Haze
7:06 PM 71.6 °F - 53.6 °F 53% 29.52 in 2.0 mi South 10.4 mph - N/A   Haze
7:22 PM 69.8 °F - 53.6 °F 56% 29.52 in 3.0 mi South 11.5 mph - N/A   Haze
7:49 PM 68.0 °F - 53.6 °F 60% 29.53 in 2.5 mi SSW 8.1 mph - N/A   Haze
7:56 PM 68.0 °F - 54.0 °F 61% 29.54 in 2.5 mi SSW 8.1 mph - N/A   Haze
8:03 PM 68.0 °F - 53.6 °F 60% 29.54 in 3.0 mi SSW 8.1 mph - N/A   Haze
8:08 PM 68.0 °F - 53.6 °F 60% 29.54 in 1.5 mi SSW 9.2 mph - N/A   Haze
8:39 PM 66.2 °F - 53.6 °F 64% 29.55 in 2.5 mi SSW 9.2 mph - N/A   Haze
8:56 PM 66.9 °F - 54.0 °F 63% 29.56 in 3.0 mi SSW 8.1 mph - N/A   Haze
9:56 PM 66.9 °F - 54.0 °F 63% 29.56 in 10.0 mi SW 10.4 mph 17.3 mph N/A   Mostly Cloudy
10:56 PM 66.0 °F - 54.0 °F 65% 29.56 in 10.0 mi SW 9.2 mph - N/A   Clear
11:56 PM 64.9 °F - 54.0 °F 68% 29.55 in 10.0 mi SW 6.9 mph - N/A   Clear